Noatak, AK

1:04 PM AKDT on June 22, 2017 (GMT -0800)
Noatak

Weather History for PAWN - September, 2012

Change the Weather History Date:

Saturday, September 22, 2012

  Actual Average Record
Temperature  
Mean Temperature 37 °F -  
Max Temperature 42 °F 40 °F 71 °F (2007)
Min Temperature 32 °F 26 °F 15 °F (2015)
Degree Days  
Heating Degree Days 28    
Moisture  
Dew Point 32 °F    
Average Humidity 81    
Maximum Humidity 93    
Minimum Humidity 61    
Precipitation  
Precipitation 0.00 in - - ()
Sea Level Pressure  
Sea Level Pressure 29.52 in    
Wind  
Wind Speed 8 mph (North)    
Max Wind Speed 16 mph    
Max Gust Speed 22 mph    
Visibility 10 miles    
Events      
Averages and records for this station are not official NWS values.
T = Trace of Precipitation, MM = Missing Value Source: NWS Daily Summary

Daily Weather History Graph

Daily Weather History Graph

Search for Another Location

Airport or City:

Trip Planner

Search our weather history database for the weather conditions in past years. The results will help you decide how hot, cold, wet, or windy it might be!

Date:

Astronomy

Sep. 22, 2012 Rise Set
Actual Time 8:35 AM AKDT 8:50 PM AKDT
Civil Twilight 7:41 AM AKDT 9:45 PM AKDT
Nautical Twilight 6:32 AM AKDT 10:53 PM AKDT
Astronomical Twilight 5:07 AM AKDT 12:15 AM AKDT
Moon 7:19 PM AKDT 10:58 PM AKDT
Length of Visible Light 14h 04m
Length of Day
12h 14m
Waxing Crescent, 50% of the Moon is Illuminated
Sep 22
Waxing Crescent
Sep 29
Full
Oct 7
Last Quarter
Oct 15
New
Oct 21
First Quarter

Hourly Weather History & Observations

Time (AKDT) Temp. Windchill Dew Point Humidity Pressure Visibility Wind Dir Wind Speed Gust Speed Precip Events Conditions
12:16 AM 33.8 °F 28.6 °F 30.2 °F 87% 29.85 in 10.0 mi NNW 5.8 mph - N/A   Overcast
12:36 AM 33.8 °F 29.6 °F 30.2 °F 87% 29.84 in 10.0 mi NNW 4.6 mph - N/A   Overcast
12:56 AM 33.8 °F 28.6 °F 30.2 °F 87% 29.83 in 10.0 mi NNW 5.8 mph - N/A   Overcast
1:16 AM 33.8 °F 27.0 °F 30.2 °F 87% 29.82 in 10.0 mi NNW 8.1 mph - N/A   Overcast
1:36 AM 33.8 °F 27.0 °F 30.2 °F 87% 29.81 in 10.0 mi NNW 8.1 mph - N/A   Overcast
1:56 AM 33.8 °F 27.7 °F 30.2 °F 87% 29.80 in 10.0 mi NNW 6.9 mph - N/A   Mostly Cloudy
2:16 AM 33.8 °F 27.7 °F 28.4 °F 81% 29.80 in 10.0 mi NNW 6.9 mph - N/A   Mostly Cloudy
2:36 AM 33.8 °F 29.6 °F 28.4 °F 81% 29.79 in 10.0 mi North 4.6 mph - N/A   Partly Cloudy
2:56 AM 32.0 °F 26.4 °F 28.4 °F 87% 29.78 in 10.0 mi NNW 5.8 mph - N/A   Unknown
3:16 AM 33.8 °F 27.0 °F 28.4 °F 81% 29.78 in 10.0 mi NNW 8.1 mph - N/A   Unknown
3:36 AM 33.8 °F 28.6 °F 28.4 °F 81% 29.77 in 10.0 mi North 5.8 mph - N/A   Clear
3:56 AM 32.0 °F 26.4 °F 28.4 °F 87% 29.76 in 10.0 mi North 5.8 mph - N/A   Scattered Clouds
4:16 AM 32.0 °F 25.6 °F 28.4 °F 87% 29.75 in 10.0 mi North 6.9 mph - N/A   Mostly Cloudy
4:36 AM 33.8 °F 28.6 °F 28.4 °F 81% 29.75 in 10.0 mi North 5.8 mph - N/A   Overcast
4:56 AM 33.8 °F 27.7 °F 28.4 °F 81% 29.75 in 10.0 mi NNW 6.9 mph - N/A   Overcast
5:16 AM 33.8 °F 27.0 °F 28.4 °F 81% 29.74 in 10.0 mi NNW 8.1 mph - N/A   Overcast
5:36 AM 33.8 °F 27.7 °F 28.4 °F 81% 29.73 in 10.0 mi North 6.9 mph - N/A   Overcast
5:56 AM 33.8 °F 27.7 °F 28.4 °F 81% 29.71 in 10.0 mi North 6.9 mph - N/A   Mostly Cloudy
6:16 AM 33.8 °F 27.7 °F 28.4 °F 81% 29.70 in 10.0 mi NNW 6.9 mph - N/A   Scattered Clouds
6:36 AM 33.8 °F 28.6 °F 30.2 °F 87% 29.69 in 10.0 mi North 5.8 mph - N/A   Clear
6:56 AM 33.8 °F 28.6 °F 28.4 °F 81% 29.68 in 10.0 mi North 5.8 mph - N/A   Clear
7:16 AM 33.8 °F 27.0 °F 28.4 °F 81% 29.68 in 10.0 mi North 8.1 mph - N/A   Clear
7:36 AM 35.6 °F 29.2 °F 30.2 °F 81% 29.67 in 10.0 mi NNW 8.1 mph - N/A   Partly Cloudy
7:56 AM 35.6 °F 28.6 °F 30.2 °F 81% 29.66 in 10.0 mi NNW 9.2 mph - N/A   Partly Cloudy
8:16 AM 35.6 °F 28.0 °F 30.2 °F 81% 29.64 in 10.0 mi NNW 10.4 mph - N/A   Mostly Cloudy
8:36 AM 35.6 °F 28.6 °F 30.2 °F 81% 29.63 in 10.0 mi NNW 9.2 mph - N/A   Overcast
8:56 AM 35.6 °F 28.6 °F 30.2 °F 81% 29.62 in 10.0 mi North 9.2 mph - N/A   Overcast
9:16 AM 35.6 °F 28.0 °F 30.2 °F 81% 29.59 in 10.0 mi North 10.4 mph - N/A   Scattered Clouds
9:36 AM 37.4 °F 29.8 °F 28.4 °F 70% 29.58 in 10.0 mi North 11.5 mph - N/A   Clear
9:56 AM 37.4 °F 30.3 °F 28.4 °F 70% 29.58 in 10.0 mi North 10.4 mph - N/A   Clear
10:16 AM 37.4 °F 30.8 °F 30.2 °F 75% 29.57 in 10.0 mi North 9.2 mph - N/A   Clear
10:36 AM 37.4 °F 32.1 °F 30.2 °F 75% 29.56 in 10.0 mi NNW 6.9 mph - N/A   Scattered Clouds
10:56 AM 37.4 °F 31.4 °F 30.2 °F 75% 29.55 in 10.0 mi NNW 8.1 mph - N/A   Mostly Cloudy
11:16 AM 39.2 °F 35.0 °F 30.2 °F 70% 29.54 in 10.0 mi North 5.8 mph - N/A   Mostly Cloudy
11:36 AM 39.2 °F 34.2 °F 30.2 °F 70% 29.53 in 10.0 mi NNW 6.9 mph - N/A   Partly Cloudy
11:56 AM 41.0 °F 33.9 °F 28.4 °F 61% 29.52 in 10.0 mi NNE 12.7 mph 16.1 mph N/A   Clear
12:16 PM 41.0 °F 34.7 °F 30.2 °F 65% 29.51 in 10.0 mi NNE 10.4 mph - N/A   Clear
12:36 PM 42.8 °F 37.0 °F 30.2 °F 61% 29.50 in 10.0 mi NNE 10.4 mph - N/A   Partly Cloudy
12:56 PM 42.8 °F 37.5 °F 30.2 °F 61% 29.49 in 10.0 mi NNE 9.2 mph - N/A   Mostly Cloudy
1:16 PM 42.8 °F 36.6 °F 30.2 °F 61% 29.48 in 10.0 mi NNE 11.5 mph - N/A   Overcast
1:36 PM 42.8 °F 37.0 °F 30.2 °F 61% 29.46 in 10.0 mi North 10.4 mph 17.3 mph N/A   Overcast
1:56 PM 42.8 °F 36.6 °F 32.0 °F 66% 29.45 in 10.0 mi NNE 11.5 mph 16.1 mph N/A   Overcast
2:16 PM 42.8 °F 36.2 °F 32.0 °F 66% 29.44 in 10.0 mi North 12.7 mph 18.4 mph N/A   Overcast
2:36 PM 42.8 °F 36.6 °F 32.0 °F 66% 29.42 in 10.0 mi NNE 11.5 mph 19.6 mph N/A   Overcast
2:56 PM 42.8 °F 37.0 °F 33.8 °F 70% 29.41 in 10.0 mi NNE 10.4 mph 18.4 mph N/A   Overcast
3:16 PM 42.8 °F 35.1 °F 35.6 °F 76% 29.40 in 10.0 mi NNE 16.1 mph 21.9 mph N/A   Overcast
3:36 PM 41.0 °F 33.5 °F 35.6 °F 81% 29.39 in 10.0 mi NNE 13.8 mph 18.4 mph N/A   Overcast
3:56 PM 41.0 °F 34.3 °F 35.6 °F 81% 29.38 in 10.0 mi NNE 11.5 mph - N/A   Overcast
4:16 PM 41.0 °F 34.7 °F 35.6 °F 81% 29.37 in 10.0 mi NNE 10.4 mph - N/A   Overcast
4:36 PM 41.0 °F 34.7 °F 35.6 °F 81% 29.36 in 10.0 mi NNE 10.4 mph - N/A   Overcast
4:56 PM 41.0 °F 34.7 °F 35.6 °F 81% 29.35 in 10.0 mi NNE 10.4 mph 17.3 mph N/A   Overcast
5:16 PM 41.0 °F 34.7 °F 35.6 °F 81% 29.35 in 10.0 mi NNE 10.4 mph - N/A   Overcast
5:36 PM 41.0 °F 35.2 °F 37.4 °F 87% 29.34 in 10.0 mi NNE 9.2 mph 16.1 mph N/A   Overcast
5:56 PM 41.0 °F 35.2 °F 37.4 °F 87% 29.33 in 10.0 mi NNE 9.2 mph - N/A   Overcast
6:16 PM 41.0 °F 35.2 °F 37.4 °F 87% 29.32 in 10.0 mi NNE 9.2 mph - N/A   Overcast
6:36 PM 41.0 °F 35.2 °F 37.4 °F 87% 29.31 in 10.0 mi NNE 9.2 mph - N/A   Overcast
6:56 PM 41.0 °F 35.2 °F 37.4 °F 87% 29.31 in 9.0 mi NNE 9.2 mph - N/A   Overcast
7:16 PM 39.2 °F 32.5 °F 37.4 °F 93% 29.30 in 9.0 mi NNE 10.4 mph - N/A   Overcast
7:36 PM 39.2 °F 33.0 °F 37.4 °F 93% 29.29 in 10.0 mi NNE 9.2 mph - N/A   Overcast
7:56 PM 39.2 °F 33.6 °F 37.4 °F 93% 29.28 in 10.0 mi NNE 8.1 mph - N/A   Overcast
8:16 PM 39.2 °F 33.0 °F 37.4 °F 93% 29.28 in 10.0 mi NNE 9.2 mph - N/A   Overcast
8:36 PM 41.0 °F 35.8 °F 37.4 °F 87% 29.27 in 10.0 mi NNE 8.1 mph - N/A   Overcast
8:56 PM 41.0 °F 36.4 °F 37.4 °F 87% 29.26 in 10.0 mi NNE 6.9 mph - N/A   Overcast
9:16 PM 39.2 °F 34.2 °F 37.4 °F 93% 29.26 in 10.0 mi NNE 6.9 mph - N/A   Overcast
9:36 PM 39.2 °F 34.2 °F 37.4 °F 93% 29.25 in 6.0 mi NNE 6.9 mph - N/A   Overcast
9:56 PM 39.2 °F 35.0 °F 37.4 °F 93% 29.24 in 4.0 mi NNE 5.8 mph - N/A   Overcast
10:16 PM 39.2 °F 34.2 °F 37.4 °F 93% 29.23 in 10.0 mi NNE 6.9 mph - N/A   Overcast
10:36 PM 39.2 °F 35.0 °F 37.4 °F 93% 29.23 in 10.0 mi NNE 5.8 mph - N/A   Overcast
10:56 PM 39.2 °F 35.0 °F 37.4 °F 93% 29.24 in 10.0 mi ENE 5.8 mph - N/A   Overcast
11:16 PM 39.2 °F 35.0 °F 37.4 °F 93% 29.23 in 2.5 mi NE 5.8 mph - N/A   Overcast
11:36 PM 39.2 °F 35.9 °F 37.4 °F 93% 29.23 in 6.0 mi NE 4.6 mph - N/A   Overcast
11:56 PM 39.2 °F - 37.4 °F 93% 29.23 in 10.0 mi Calm Calm - N/A   Overcast